INTELSAT 14 (IS-14) (36097 NORAD) Tracking and Keplerian Element Data

This shows tracking and keplerian element data for the satellite.

Feedback or suggestion? Click here.




ElementValue
Catalog36097
NameINTELSAT 14 (IS-14)
Epoch Orbit3321
Epoch Day348.89297556
Epoch Year2018
RAAN296.172
Inclination0.0137
Eccentricity0.0002501
Argument of Perigee334.4567
Mean Anonmoly89.3564
Mean Motion1.00271196
Decay Rate-2.62E-06
L11 36097U 09064A 18348.89297556 -.00000262 00000-0 00000-0 0 9990
L22 36097 0.0137 296.1720 0002501 334.4567 89.3564 1.00271196 33216

Live tracking and technical data element details for INTELSAT 14 (IS-14) (NORAD 36097). INTELSAT 14 (IS-14) can be tracked NOW for your location showing map with azimuth and elevation plus other details from your city location.

Track the satellite on the map from your city or location and see movement details for azimuth, elevation, latitude, longitude, range, height, and movement on the map or in text.







IsCatalogInMostPopularTable: catalog: 36097, numindb: 66
Update: records affected: 1



GetName: 36097 INTELSAT 14 (IS-14)

Hit Count: updated at: Sun, 16 Dec 2018 10:42:00 GMT